SCP
0 0 0 0 0 0 0 0 -0 0 0 0 0 0 0 0 0 0 0 0 0 0 0 0 0 0 0 0 0 0 0 0 0 0 0 0 0 0 0 0 0 0 0
0 0 0 0 0 0 -0 -0 -0 0 0 0 0 0 0 0 0 0 0 0 0 0 0 0 0 0 0 0 0 0 0 0 0 0 0 0 0 0 0 0 0 0 0
0 0 0 0 0 0 -0 -0 -0 0 0 0 0 0 0 0 0 0 0 0 0 0 0 0 0 0 0 0 0 0 0 0 0 0 0 0 0 0 0 0 0 0 0
0 0 0 0 0 0 -0 -0 -0 0 0 0 0 0 0 0 0 0 0 0 0 0 0 0 0 0 0 0 0 0 0 0 0 0 0 0 0 0 0 0 0 0 0
0 0 0 0 -0 -0 -0 -0 0 0 0 0 0 0 0 0 0 0 0 0 0 0 0 0 0 0 0 0 0 0 0 0 0 0 0 0 0 0 0 0 0 0 0
0 0 0 0 -0 -0 -0 -0 0 0 0 0 0 0 0 0 0 0 0 0 0 0 0 0 0 0 0 0 0 0 0 0 0 0 0 0 0 0 0 0 0 0 0
0 0 0 0 -0 -0 0 0 0 0 0 0 0 0 0 0 0 0 0 0 0 0 0 0 0 0 0 0 0 0 0 0 0 0 0 0 0 0 0 0 0 0 0
0 0 0 0 0 0 0 0 0 0 0 0 0 0 0 0 0 0 0 0 0 0 0 0 0 0 0 0 0 0 0 0 0 0 0 0 0 0 0 0 0 0 0
0 0 0 0 0 0 0 0 0 0 0 0 0 0 0 0 0 0 0 0 0 0 0 0 0 0 0 0 0 0 0 0 0 0 0 0 0 0 0 0 0 0 0
0 0 0 0 0 0 0 0 0 0 0 0 0 0 0 0 0 0 0 0 0 0 0 0 0 0 0 0 0 0 0 0 0 0 0 0 0 0 0 0 0 0 0
0 0 0 0 0 0 0 0 0 0 0 0 0 0 0 0 0 0 0 0 0 0 0 0 0 0 0 0 0 0 0 0 0 0 0 0 0 0 0 0 0 0 0
0 0 0 0 0 0 0 0 0 0 0 0 0 0 0 0 0 0 0 0 0 0 0 0 0 0 0 0 0 0 0 0 0 0 0 0 0 0 0 0 0 0 0
0 0 0 0 0 0 0 0 0 0 0 0 0 0 0 0 0 0 0 0 0 0 0 0 0 0 0 0 0 0 0 0 0 0 0 0 0 0 0 0 0 0 0
0 0 0 0 0 0 0 0 0 0 0 0 0 0 0 0 0 0 0 0 0 0 0 0 0 0 0 0 0 0 0 0 0 0 0 0 0 0 0 0 0 0 0
0 0 0 0 0 0 0 0 0 0 0 0 0 0 0 0 0 0 0 0 0 0 0 0 0 0 0 0 0 0 0 0 0 0 0 0 0 0 0 0 0 0 0
0 0 0 0 0 0 0 0 0 0 0 0 0 0 0 0 0 0 0 0 0 0 0 0 0 0 0 0 0 0 0 0 0 0 0 0 0 0 0 0 0 0 0
0 0 0 0 0 0 0 0 0 0 0 0 0 0 0 0 0 0 0 0 0 0 0 0 0 0 0 0 0 0 0 0 0 0 0 0 0 0 0 0 0 0 0
0 0 0 0 0 0 0 0 0 0 0 0 0 0 0 0 0 0 0 0 0 0 0 0 0 0 0 0 0 0 0 0 0 0 0 0 0 0 0 0 0 0 0
0 0 0 0 0 0 0 0 0 0 0 0 0 0 0 0 0 0 0 0 0 0 0 0 0 0 0 0 0 0 0 0 0 0 0 0 0 0 0 0 0 0 0
0 0 0 0 0 0 0 0 0 0 0 0 0 0 0 0 0 0 0 0 0 0 0 0 0 0 0 0 0 0 0 0 0 0 0 0 0 0 0 0 0 0 0
0 0 0 0 0 0 0 0 0 0 0 0 0 0 0 0 0 0 0 0 0 0 0 0 0 0 0 0 0 0 0 0 0 0 0 0 0 0 0 0 0 0 0
0 0 0 0 0 0 0 0 0 0 0 0 0 0 0 0 0 0 0 0 0 0 0 0 0 0 0 0 0 0 0 0 0 0 0 0 0 0 0 0 0 0 0
0 0 0 0 0 0 0 0 0 0 0 0 0 0 0 0 0 0 0 0 0 0 0 0 0 0 0 0 0 0 0 0 0 0 0 0 0 0 0 0 0 0 0
0 0 0 0 0 0 0 0 0 0 0 0 0 0 0 0 0 0 0 0 0 0 0 0 0 0 0 0 0 0 0 0 0 0 0 0 0 0 0 0 0 0 0
0 0 0 0 0 0 0 0 0 0 0 0 0 0 0 0 0 0 0 0 0 0 0 0 0 0 0 0 0 0 0 0 0 0 0 0 0 0 0 0 0 0 0
0 0 0 0 0 0 0 0 0 0 0 0 0 0 0 0 0 0 0 0 0 0 0 0 0 0 0 0 0 0 0 0 0 0 0 0 0 0 0 0 0 0 0
Wind_Speed
2 2 2 3 3 3 3 3 3 4 4 4 4 3 3 3 2 2 3 6 5 4 3 2 2 1 1 2 2 3 3 4 5 6 7 7 7 7 7 8 8 9 10
2 2 3 3 3 3 3 2 3 3 3 3 4 3 3 3 3 3 2 4 6 6 4 2 2 1 1 2 2 3 3 4 5 5 6 6 6 7 7 7 8 8 9
2 2 2 3 3 3 3 3 3 3 3 3 4 3 3 3 3 3 3 2 3 5 5 3 2 1 0 2 2 2 3 4 4 5 5 6 6 6 6 7 7 7 8
2 2 2 2 3 3 3 3 3 3 3 3 3 3 3 3 3 3 3 3 2 3 4 4 3 2 1 1 2 3 3 4 4 5 5 5 5 5 6 6 6 7 8
2 2 2 2 3 3 3 3 3 2 2 3 3 3 3 3 3 3 4 4 3 3 3 3 4 3 2 1 1 2 3 3 4 5 5 6 5 5 5 5 6 7 7
3 2 2 3 3 3 3 3 3 3 2 2 3 3 3 3 3 3 4 3 3 3 3 3 2 3 3 2 1 1 2 4 4 4 5 6 6 5 6 5 5 6 7
3 2 2 3 3 2 2 3 2 3 3 3 3 3 3 3 4 3 3 3 4 3 3 3 2 2 2 3 2 1 2 3 4 4 5 5 6 6 6 6 6 6 7
3 2 2 2 2 2 3 3 2 2 3 3 2 2 4 5 4 4 3 3 4 3 3 3 2 2 1 1 2 2 1 1 3 4 5 5 5 6 6 6 6 6 7
4 3 3 2 2 2 2 3 2 2 2 2 2 2 2 1 3 4 3 3 4 3 3 2 2 2 1 1 1 2 1 1 2 3 4 5 6 6 7 7 7 7 7
4 4 3 3 3 2 2 2 2 1 1 1 2 2 1 1 0 3 4 3 4 3 3 3 3 2 2 1 1 1 1 1 2 3 3 4 5 6 7 8 8 7 8
4 4 4 3 4 3 3 3 3 2 1 1 1 1 1 1 1 1 2 4 4 3 3 3 2 2 2 1 1 1 1 1 2 2 3 4 5 6 7 7 8 8 8
3 5 4 4 3 3 3 3 3 2 1 1 1 0 0 0 0 1 1 2 3 3 3 2 2 2 2 1 2 2 2 1 1 2 2 3 3 5 7 8 8 8 9
3 4 4 3 3 3 3 3 3 3 3 2 1 0 0 1 1 1 1 1 2 3 3 2 2 2 2 1 2 3 2 2 2 2 2 3 3 4 5 6 8 8 8
1 3 3 3 3 3 4 3 3 3 3 3 3 2 1 1 1 1 1 1 1 2 2 3 2 2 2 2 2 3 2 3 3 3 3 3 3 3 3 4 5 6 7
2 3 3 3 4 3 3 3 3 3 3 3 3 3 2 2 1 1 1 1 1 1 2 3 2 2 2 2 2 2 2 4 4 3 3 3 2 3 3 2 3 4 5
2 3 3 4 4 4 3 3 2 3 3 3 2 3 3 2 2 1 1 1 1 2 2 2 2 3 3 3 3 2 2 4 4 3 3 3 3 3 3 3 3 3 4
2 3 2 3 3 3 3 3 3 3 3 4 4 3 4 3 2 2 1 1 1 2 3 3 2 2 2 3 3 2 2 2 2 3 3 4 4 4 4 3 3 4 4
2 2 2 2 3 3 3 3 3 3 3 4 4 4 4 4 4 3 2 2 2 2 2 4 3 2 3 2 2 3 3 2 2 3 3 4 4 4 4 3 3 4 4
2 2 2 2 3 3 3 2 2 2 2 3 3 3 4 4 4 3 3 3 2 2 2 3 3 2 2 2 2 2 2 2 2 2 3 3 3 4 4 4 4 4 4
1 2 2 2 2 2 2 2 2 2 3 3 3 3 3 3 4 4 3 3 3 2 2 2 3 3 2 2 1 2 2 2 2 2 2 2 2 3 4 5 5 5 5
1 1 2 2 3 2 2 3 2 2 3 4 4 4 4 6 6 4 3 3 2 2 2 3 3 3 3 2 2 2 3 2 2 2 2 2 2 2 3 4 5 6 6
1 1 2 2 3 3 7 7 4 2 3 3 4 5 5 6 7 8 8 7 5 3 3 3 3 4 5 4 3 3 2 2 3 2 1 2 1 3 3 3 5 6 7
1 2 2 2 3 5 8 8 7 3 3 3 4 4 5 6 7 4 7 9 7 8 7 5 5 6 5 5 4 4 4 4 5 3 2 3 2 3 3 4 6 8 8
1 1 2 3 3 6 9 8 8 3 3 4 4 4 5 6 6 6 5 6 6 6 7 5 6 7 6 5 6 6 6 5 4 3 3 4 3 3 3 3 6 8 8
1 2 2 3 3 6 9 8 7 2 3 4 4 5 5 5 10 10 6 6 7 7 8 9 10 10 11 10 7 3 3 3 4 4 3 3 3 3 3 3 4 7 8
2 2 3 3 3 5 8 9 8 2 3 4 4 5 8 9 12 12 6 5 7 8 6 7 8 8 7 8 9 6 5 4 4 4 4 4 3 2 2 2 3 4 5
Wind_Direction
35 21 4 4 1 356 0 357 357 359 2 1 4 8 0 356 348 345 338 344 353 349 333 310 300 261 175 151 137 135 132 124 124 121 119 116 112 111 107 102 104 104 103
54 32 14 6 0 355 353 356 356 359 359 1 7 4 359 357 356 352 347 347 356 355 343 323 312 293 173 157 150 148 146 140 137 130 127 126 124 119 115 109 107 108 106
50 40 22 5 350 348 355 2 2 7 14 13 8 360 9 9 7 358 353 352 351 354 352 343 340 339 260 184 169 154 146 145 141 142 136 132 132 128 124 119 116 115 113
45 41 27 0 346 356 5 9 9 10 13 11 3 0 7 9 8 3 7 5 0 354 350 356 4 347 302 220 180 168 152 144 150 157 153 145 139 139 133 131 127 127 122
35 44 27 358 356 8 11 8 20 18 8 3 1 13 11 15 10 13 13 11 7 5 360 0 4 350 332 247 202 181 167 156 154 164 163 156 152 152 150 142 137 137 134
21 32 24 6 8 18 12 11 16 17 12 356 10 18 12 11 16 19 11 8 9 13 13 11 7 352 4 13 324 224 189 176 165 169 171 167 164 162 160 157 151 147 146
16 25 16 8 11 19 6 5 13 20 10 358 24 7 358 10 25 21 9 11 9 5 12 13 11 10 357 16 355 302 220 194 183 175 176 173 173 175 170 173 172 165 161
10 19 23 10 7 11 13 16 26 24 11 18 47 43 3 351 354 5 5 14 7 3 13 12 11 14 6 16 353 345 340 237 206 198 189 181 178 183 180 182 186 184 177
17 20 16 12 10 21 7 1 19 51 22 6 37 92 86 330 323 334 354 4 3 7 360 352 7 9 8 11 354 338 332 312 259 224 208 197 191 191 190 190 193 195 188
19 20 21 20 18 16 7 353 27 41 69 11 5 35 116 169 107 332 332 342 352 2 353 352 354 355 356 352 341 343 327 302 280 266 243 221 212 206 200 198 200 200 197
14 17 22 21 19 16 9 6 14 30 56 61 10 9 40 46 100 152 312 325 338 339 344 339 339 342 339 342 326 327 327 298 270 272 268 247 229 220 212 205 203 205 204
5 12 18 19 15 14 13 10 13 23 23 39 34 79 138 147 225 171 250 304 317 315 329 332 335 329 323 331 318 338 329 308 284 283 274 258 246 230 221 216 213 211 213
2 356 7 8 8 5 12 19 24 18 12 15 358 316 251 232 212 184 194 273 311 312 326 328 320 322 322 332 320 325 313 305 279 265 265 258 250 240 226 220 219 216 215
332 340 356 5 6 11 18 22 23 8 12 11 8 1 339 304 261 213 197 196 318 326 327 309 318 321 325 325 307 310 298 291 278 260 254 249 243 229 230 229 221 217 216
359 3 7 10 7 12 18 25 24 8 6 1 355 359 356 331 325 279 228 199 187 286 300 296 308 319 319 309 307 303 294 286 279 266 249 234 227 222 218 224 233 227 222
10 16 16 16 14 13 16 25 15 2 15 1 353 1 353 335 336 329 291 240 212 205 256 277 280 298 307 306 309 304 294 293 286 275 256 231 207 202 205 207 213 220 217
12 15 9 17 15 11 9 18 10 10 11 360 358 358 343 332 337 333 323 290 248 211 245 278 277 297 300 299 309 306 294 283 280 273 258 238 214 203 203 206 210 213 205
5 6 11 17 11 8 5 10 358 2 0 349 342 345 337 338 335 326 322 306 279 244 232 270 292 300 291 284 291 296 301 287 270 270 254 241 221 208 204 206 207 210 208
9 9 13 5 354 349 350 349 347 344 339 328 326 328 322 331 324 317 312 306 293 291 259 257 276 278 283 293 300 297 293 297 281 267 254 242 224 211 204 205 206 208 209
358 349 347 340 333 330 328 333 339 334 326 321 316 312 311 308 298 304 311 308 303 301 294 276 278 284 275 278 264 274 289 284 285 291 282 251 229 218 214 211 210 209 208
327 325 341 340 332 321 323 327 318 315 313 317 317 309 303 307 311 310 312 305 305 292 289 285 281 286 278 269 258 250 259 277 276 261 265 258 242 239 234 225 218 213 209
326 342 332 325 325 324 330 332 322 301 300 303 305 307 307 308 314 320 315 308 298 288 277 266 269 270 268 259 258 250 242 256 268 242 223 261 232 238 237 227 221 215 211
314 322 315 317 309 308 322 330 326 313 290 288 290 296 305 312 318 307 308 312 304 294 281 263 255 257 261 256 249 253 242 235 241 233 208 250 233 239 241 237 226 219 212
282 289 298 303 305 312 328 332 330 329 293 286 283 278 281 291 295 298 297 299 290 288 281 273 253 253 257 254 239 245 245 252 263 247 204 235 235 237 240 237 231 219 210
279 278 284 296 301 308 323 327 331 318 304 297 291 287 285 282 294 303 298 295 296 292 286 283 280 275 273 273 263 248 239 238 260 252 213 216 229 236 240 240 234 217 207
257 278 292 290 287 294 313 324 328 308 303 301 300 295 297 298 302 305 292 282 288 288 290 294 293 289 281 274 262 235 224 233 248 250 218 200 212 202 244 246 229 216 207